Kansas City, MO

2:48 AM CDT on August 31, 2016 (GMT -0500)
Kansas City International

Weather History for KMCI - February, 2013

Change the Weather History Date:

Sunday, February 24, 2013

  Actual Average Record
Temperature  
Mean Temperature 29 °F 36 °F  
Max Temperature 41 °F 46 °F 81 °F (1930)
Min Temperature 16 °F 26 °F 2 °F (2003)
Degree Days  
Heating Degree Days 36 29  
Month to date heating degree days 771 744  
Since 1 July heating degree days 3598 3908  
Cooling Degree Days 0 0  
Month to date cooling degree days 0 0  
Year to date cooling degree days 0 0  
Moisture  
Dew Point 20 °F    
Average Humidity 67    
Maximum Humidity 88    
Minimum Humidity 46    
Precipitation  
Precipitation 0.00 in 0.06 in 1.17 in (1892)
Month to date precipitation 1.07 1.17  
Year to date precipitation 2.10 2.24  
Snow  
Snow 0.00 in 0.20 in 7.20 in (1965)
Month to date snowfall 9.5 4.7  
Since 1 July snowfall 14.2 15.5  
Snow Depth 7.00 in    
Sea Level Pressure  
Sea Level Pressure 30.00 in    
Wind  
Wind Speed 8 mph (ESE)    
Max Wind Speed 16 mph    
Max Gust Speed 18 mph    
Visibility 9 miles    
Events      
T = Trace of Precipitation, MM = Missing Value Source: NWS Daily Summary

Daily Weather History Graph

Daily Weather History Graph

Search for Another Location

Airport or City:

Trip Planner

Search our weather history database for the weather conditions in past years. The results will help you decide how hot, cold, wet, or windy it might be!

Date:

Astronomy

Feb. 24, 2013 Rise Set
Actual Time 6:58 AM CST 6:06 PM CST
Civil Twilight 6:31 AM CST 6:33 PM CST
Nautical Twilight 6:00 AM CST 7:04 PM CST
Astronomical Twilight 5:29 AM CST 7:35 PM CST
Moon 5:18 PM CST (2/24) 5:56 AM CST (2/24)
Length of Visible Light 12h 01m
Length of Day
11h 07m
Waxing Gibbous, 99% of the Moon is Illuminated
Feb 24
Waxing Gibbous
Feb 25
Full
Mar 4
Last Quarter
Mar 11
New
Mar 19
First Quarter

Hourly Weather History & Observations

Time (CST) Temp. Windchill Dew Point Humidity Pressure Visibility Wind Dir Wind Speed Gust Speed Precip Events Conditions
12:53 AM 17.1 °F 5.8 °F 12.9 °F 84% 30.00 in 9.0 mi South 9.2 mph - N/A   Partly Cloudy
1:53 AM 21.0 °F 11.4 °F 16.0 °F 81% 30.00 in 9.0 mi South 8.1 mph - N/A   Scattered Clouds
2:53 AM 21.9 °F 14.5 °F 17.1 °F 82% 29.99 in 9.0 mi South 5.8 mph - N/A   Scattered Clouds
3:53 AM 16.0 °F 10.4 °F 12.9 °F 88% 29.99 in 8.0 mi South 3.5 mph - N/A   Scattered Clouds
4:53 AM 19.9 °F - 15.1 °F 81% 29.99 in 6.0 mi Calm Calm - N/A   Haze
5:53 AM 21.9 °F - 16.0 °F 78% 30.01 in 5.0 mi Calm Calm - N/A   Haze
6:53 AM 18.0 °F 8.7 °F 14.0 °F 84% 30.01 in 5.0 mi SE 6.9 mph - N/A   Partly Cloudy
7:53 AM 19.0 °F 11.1 °F 15.1 °F 85% 30.03 in 6.0 mi SE 5.8 mph - N/A   Partly Cloudy
8:53 AM 26.1 °F 16.8 °F 18.0 °F 71% 30.04 in 7.0 mi SSE 9.2 mph - N/A   Partly Cloudy
9:53 AM 32.0 °F 26.4 °F 21.9 °F 66% 30.05 in 9.0 mi SE 5.8 mph - N/A   Clear
10:53 AM 37.0 °F 29.3 °F 21.0 °F 52% 30.04 in 10.0 mi ESE 11.5 mph - N/A   Clear
11:53 AM 39.0 °F 33.4 °F 21.9 °F 50% 30.04 in 10.0 mi East 8.1 mph - N/A   Clear
12:53 PM 39.9 °F 34.5 °F 23.0 °F 51% 30.02 in 10.0 mi ENE 8.1 mph - N/A   Partly Cloudy
1:53 PM 39.9 °F 33.4 °F 23.0 °F 51% 29.98 in 10.0 mi ENE 10.4 mph - N/A   Scattered Clouds
2:53 PM 41.0 °F 34.3 °F 23.0 °F 49% 29.96 in 10.0 mi ENE 11.5 mph - N/A   Mostly Cloudy
3:53 PM 41.0 °F 33.5 °F 23.0 °F 49% 29.96 in 10.0 mi East 13.8 mph - N/A   Mostly Cloudy
4:53 PM 39.9 °F 32.9 °F 24.1 °F 53% 29.95 in 10.0 mi East 11.5 mph - N/A   Mostly Cloudy
5:53 PM 37.9 °F 31.5 °F 23.0 °F 55% 29.96 in 10.0 mi East 9.2 mph - N/A   Mostly Cloudy
6:53 PM 37.0 °F 29.8 °F 24.1 °F 59% 29.99 in 10.0 mi ENE 10.4 mph - N/A   Overcast
7:53 PM 35.1 °F 27.4 °F 24.1 °F 64% 29.99 in 10.0 mi ENE 10.4 mph - N/A   Scattered Clouds
8:53 PM 34.0 °F 25.5 °F 23.0 °F 64% 29.98 in 10.0 mi ENE 11.5 mph - N/A   Scattered Clouds
9:53 PM 33.1 °F 25.5 °F 23.0 °F 66% 30.01 in 10.0 mi NNE 9.2 mph - N/A   Mostly Cloudy
10:53 PM 33.1 °F 24.9 °F 24.1 °F 70% 30.01 in 10.0 mi NE 10.4 mph - N/A   Overcast
11:53 PM 33.1 °F 23.9 °F 23.0 °F 66% 29.98 in 10.0 mi ENE 12.7 mph - N/A   Mostly Cloudy